Theta_e
310 311 312 313 314 315 315 316 317 317 318 318 319 320 320 319 315 312 310 313 306 303 305 309 311 308 306 306 301 305 305 310 310 305 301 302 302 303 302 304 302 302 300 299 299 298 295 310 314 308 315 317 318 323
310 311 311 313 314 314 316 317 315 315 316 317 318 318 318 319 316 314 306 314 313 304 304 309 310 311 311 311 307 308 306 305 311 308 307 304 303 303 304 298 304 301 306 303 305 304 312 316 318 322 320 321 321 324
310 310 311 313 313 314 315 314 314 314 315 316 317 318 318 316 315 313 308 310 308 304 304 306 307 313 314 313 316 306 308 309 313 313 310 309 304 305 301 303 304 306 306 307 305 310 310 313 317 319 319 321 324 325
309 309 312 312 313 314 313 313 313 313 314 314 315 315 316 315 314 314 308 310 307 304 298 303 313 311 316 315 313 314 312 312 310 310 309 308 305 307 305 306 306 308 308 308 308 309 312 314 317 320 319 319 320 323
309 309 311 311 312 313 313 313 313 313 313 313 313 314 314 314 312 312 311 311 310 304 298 300 307 311 312 312 312 313 312 310 308 306 307 305 310 308 307 307 306 309 310 306 306 317 318 319 320 322 320 321 323 324
309 310 311 311 312 312 312 312 312 312 311 312 312 313 312 311 311 307 303 309 311 310 300 295 309 308 310 308 309 308 310 310 310 307 306 307 311 309 306 305 313 313 313 314 314 315 318 318 321 323 321 323 325 323
309 309 310 310 311 311 310 311 311 311 311 312 312 311 311 310 309 303 302 308 311 312 301 297 301 307 311 307 306 308 311 307 308 307 305 307 309 310 307 305 314 313 316 316 316 317 315 320 320 324 324 325 322 324
308 308 309 310 310 311 310 310 310 310 310 311 311 311 311 310 309 306 311 309 311 305 304 298 298 303 309 303 301 306 303 305 305 306 307 306 308 309 305 312 314 314 316 316 316 317 316 322 324 325 326 325 323 322
309 308 308 310 309 310 310 310 310 310 310 310 310 311 309 308 304 306 313 313 311 305 300 301 296 298 310 306 305 304 306 299 305 303 304 307 307 303 310 314 314 315 316 317 317 316 316 320 322 325 325 324 323 323
308 308 308 309 310 310 310 310 310 309 309 310 308 304 301 308 314 314 309 305 303 305 304 299 303 297 304 305 304 304 304 303 299 303 306 303 303 311 316 317 318 318 318 318 314 313 315 318 322 324 324 326 326 324
307 308 308 309 309 310 310 310 309 309 308 306 302 303 307 312 310 305 301 300 301 297 301 301 301 298 305 303 308 308 303 304 299 302 302 301 301 309 315 315 320 320 321 320 320 321 320 319 320 323 324 326 325 323
306 307 308 308 309 309 309 309 309 306 306 305 303 305 305 305 302 299 298 300 298 296 301 300 303 302 304 309 309 309 304 305 299 307 303 300 307 311 315 315 314 317 317 318 320 320 318 318 320 322 323 325 325 323
305 306 307 308 309 309 309 309 309 309 308 308 303 300 302 301 292 293 291 296 297 303 306 307 304 304 304 310 308 308 302 302 308 303 302 307 311 314 314 316 318 318 315 316 316 317 318 319 319 321 323 325 325 322
305 306 307 308 309 309 308 308 308 308 305 301 298 290 295 294 296 297 298 301 306 307 307 307 306 305 306 307 307 300 304 306 300 298 300 308 312 314 317 317 317 317 318 315 316 318 319 320 320 322 324 325 324 322
305 307 308 309 309 309 308 308 308 306 304 298 299 291 295 300 301 304 307 307 309 311 309 309 309 308 305 304 306 303 300 297 300 301 307 313 314 316 318 318 317 320 322 322 323 322 322 322 322 323 325 324 324 323
306 307 307 308 308 309 308 307 306 306 303 300 299 296 300 299 301 303 303 303 312 309 312 311 305 303 301 300 299 300 298 297 303 309 313 314 316 319 319 319 320 322 323 323 324 323 325 324 323 324 325 323 322 323
305 305 308 309 309 308 307 304 304 300 299 297 297 302 301 301 300 302 303 306 312 308 304 306 300 299 305 301 299 304 302 309 313 313 315 315 318 318 318 318 319 321 322 323 324 324 322 322 322 322 321 321 322 323
304 307 308 308 307 305 303 302 300 299 295 298 296 299 302 303 302 303 303 308 307 307 307 304 309 302 300 298 302 307 310 314 316 316 318 319 319 318 317 318 319 322 322 322 323 324 325 325 324 323 323 320 320 321
305 305 307 308 305 303 299 299 300 294 297 300 302 303 302 303 305 306 305 306 308 311 309 308 303 301 302 306 308 310 312 313 314 314 316 317 318 318 318 317 317 318 321 321 322 321 323 324 324 323 321 320 318 320
306 306 307 307 308 301 298 299 304 298 296 300 302 301 302 303 305 305 305 306 307 307 304 302 302 306 307 309 311 311 313 314 314 313 313 316 318 317 317 317 317 318 318 320 319 310 319 320 321 324 323 320 320 319
305 305 306 308 304 303 300 299 299 301 302 299 302 302 302 303 302 302 303 306 303 302 301 305 306 309 312 312 312 313 312 313 312 312 312 313 317 318 319 318 318 317 318 318 317 317 313 319 321 321 321 322 324 323
305 306 304 306 301 302 298 301 298 300 297 299 299 301 299 300 301 303 305 301 302 303 305 306 308 308 309 310 311 311 313 313 315 314 306 309 315 316 317 317 316 316 317 317 318 318 319 321 322 321 321 324 319 323
306 306 302 302 296 295 294 301 297 298 296 299 300 298 299 299 303 306 303 305 306 310 309 308 310 310 309 311 311 312 313 313 311 312 314 315 317 318 318 318 317 315 315 317 319 320 320 312 317 319 322 323 323 323
305 301 297 296 294 291 299 296 298 298 299 298 297 296 300 303 307 305 302 305 310 313 314 314 314 311 310 310 308 310 312 312 312 314 316 316 314 315 317 316 318 318 318 320 320 320 321 321 311 320 320 320 322 322
293 292 294 289 297 294 292 293 295 297 296 298 297 298 302 305 302 301 302 307 312 313 311 315 314 315 312 312 312 312 315 313 312 314 317 317 318 318 319 320 319 319 320 318 318 318 320 321 321 320 319 319 320 322
287 294 289 294 294 293 293 292 295 295 297 297 299 303 305 303 298 298 304 307 308 310 313 312 312 312 314 316 315 316 316 318 318 315 319 319 317 318 318 317 316 318 322 320 319 318 318 319 318 318 318 317 305 319
288 291 296 300 297 297 296 299 300 297 296 297 300 300 300 295 296 302 307 312 310 317 318 317 316 316 316 318 319 320 321 320 320 320 322 322 322 323 321 318 317 320 320 318 317 317 315 315 315 319 318 318 321 322
295 295 291 296 297 298 295 296 297 297 299 302 302 297 295 296 298 306 309 314 315 317 317 317 319 319 318 318 320 321 321 320 320 320 320 320 321 320 321 321 321 298 315 313 313 319 317 316 318 320 319 320 321 323
293 296 296 293 295 296 297 297 299 300 303 302 298 297 299 305 310 312 315 317 318 317 314 315 319 320 320 320 321 322 322 320 318 314 313 315 318 320 322 321 322 319 319 319 297 304 316 318 319 319 319 320 319 319
293 297 294 294 295 295 300 302 303 305 306 307 308 308 308 310 314 317 316 316 315 312 313 313 317 316 314 316 316 317 321 322 321 320 317 316 320 323 323 321 321 321 320 317 317 317 303 314 311 318 316 316 317 317
298 297 295 296 296 300 303 306 307 307 307 306 307 304 305 310 314 316 315 315 314 313 312 311 311 312 311 316 314 314 316 321 322 322 322 322 323 321 320 320 320 321 320 319 315 318 317 316 317 317 316 316 315 314
296 295 296 294 297 302 303 302 304 304 305 305 305 307 309 309 308 313 316 316 315 312 307 309 308 308 313 315 319 319 305 322 322 320 320 320 320 320 319 320 320 320 320 319 316 315 317 318 317 316 313 311 312 312
296 297 297 296 297 298 305 305 305 304 306 307 308 309 310 309 306 313 318 320 317 315 313 313 314 316 319 318 318 315 309 316 307 299 299 300 301 308 318 319 319 319 319 319 319 318 317 316 315 314 314 313 312 312
Wind_Speed
13 14 13 13 14 16 17 14 10 10 10 10 9 7 6 10 11 4 0 2 2 3 6 5 4 4 2 1 4 6 6 2 2 4 3 4 3 5 4 6 8 10 9 6 4 5 8 11 9 10 6 3 5 10
13 12 13 13 15 16 14 7 6 7 9 8 8 7 6 6 11 6 2 1 2 2 5 4 9 14 10 11 5 4 4 4 4 2 0 4 3 2 3 6 0 6 5 8 10 6 2 19 10 11 7 5 5 11
13 10 13 14 14 14 7 6 7 7 8 9 9 8 2 7 8 6 0 1 1 2 6 9 11 11 14 17 14 5 3 4 2 5 1 3 3 3 3 2 4 3 3 4 5 8 7 14 8 7 9 7 7 5
9 11 13 13 14 6 6 7 7 8 9 8 7 7 2 5 5 5 2 1 1 1 4 6 5 10 5 11 18 18 14 4 4 4 3 3 3 1 1 1 2 2 6 5 3 1 4 6 14 9 8 5 7 7
9 10 10 12 11 8 6 6 6 6 8 8 7 6 2 4 3 2 2 3 3 2 3 5 14 15 9 14 12 15 15 13 5 3 3 3 3 3 0 2 3 6 6 6 6 10 8 8 15 11 11 11 10 10
9 9 8 9 8 8 7 6 6 6 6 7 6 3 2 2 0 1 3 3 5 3 3 4 5 5 2 5 13 15 10 6 3 2 2 2 3 3 3 4 3 8 7 6 0 3 3 3 9 13 12 10 9 8
9 8 7 7 7 6 6 7 6 7 6 6 4 2 2 3 1 3 2 2 3 2 2 4 5 3 2 3 5 5 7 2 2 3 1 2 3 5 2 4 2 6 9 8 5 7 3 6 7 12 9 10 9 6
9 8 8 6 5 6 7 7 8 8 8 9 7 6 7 7 7 5 3 10 3 2 3 3 4 5 4 3 4 3 5 3 3 3 2 6 4 3 6 9 7 4 5 6 7 7 2 3 4 11 9 10 10 8
10 8 7 6 4 6 7 7 8 9 8 9 9 12 3 3 2 2 4 6 3 2 3 2 2 1 4 2 2 3 4 5 3 5 4 6 6 6 6 8 9 9 8 7 7 8 4 4 6 9 11 9 8 9
10 9 7 6 5 6 7 7 8 9 9 9 2 2 2 1 7 5 3 2 4 3 2 3 3 4 2 1 3 3 3 4 5 5 3 4 6 7 8 9 7 8 8 5 7 7 6 5 9 9 14 11 9 9
8 9 8 6 6 6 7 6 7 11 2 0 2 2 3 7 2 2 3 3 3 3 5 4 8 4 1 2 1 2 2 3 4 3 3 2 4 6 8 13 11 11 9 10 8 6 7 3 4 7 10 10 8 10
8 8 9 6 6 5 6 6 5 2 1 2 3 4 3 2 2 3 3 3 5 3 3 3 4 6 3 2 3 2 1 1 2 3 2 3 1 5 8 7 10 11 9 11 11 8 6 4 6 9 8 9 9 10
8 8 9 5 8 6 5 4 4 5 6 2 2 3 2 1 2 3 3 2 3 2 1 3 3 2 2 2 1 2 2 2 2 4 3 2 5 7 8 6 6 6 8 10 8 7 4 5 5 9 8 7 10 10
8 8 8 8 8 5 4 4 4 3 1 2 3 3 3 3 4 3 2 2 1 3 5 5 3 2 0 2 1 2 2 2 2 2 2 3 4 7 7 6 4 5 3 7 11 10 7 3 6 7 8 8 10 12
8 8 9 7 5 5 3 2 3 1 1 3 3 4 5 3 4 5 4 3 2 2 4 2 3 2 1 2 1 2 2 3 3 1 2 2 4 5 6 6 5 7 7 6 4 3 5 8 9 9 8 9 10 11
7 9 2 2 2 4 3 1 1 1 2 3 4 4 4 3 3 2 2 3 1 2 2 1 2 2 2 1 3 3 3 3 1 1 1 0 1 3 4 5 6 4 5 7 8 5 1 5 8 8 5 9 11 13
5 1 5 7 6 6 4 1 2 3 3 4 4 4 6 6 5 3 1 3 3 4 2 2 3 1 2 3 3 2 1 2 2 2 2 2 2 3 3 4 5 6 6 5 5 7 5 4 4 4 4 2 4 9
2 2 6 7 4 3 0 1 2 3 5 5 5 3 3 4 4 4 2 2 1 2 2 1 1 2 3 2 2 0 1 1 1 0 1 2 3 2 1 4 5 5 5 5 5 3 4 5 3 2 3 7 7 8
2 1 5 6 1 1 2 3 2 3 4 3 5 5 4 4 5 7 6 3 3 2 2 1 3 3 2 2 2 1 1 1 1 1 1 3 3 2 1 3 3 4 5 5 6 4 3 4 3 3 1 5 5 7
4 6 5 3 4 2 3 2 2 3 4 2 3 4 4 4 3 3 4 3 3 2 4 4 4 2 2 1 2 1 1 2 1 2 2 2 1 1 2 3 2 1 2 3 4 4 4 3 2 3 3 2 4 8
2 1 1 2 2 3 3 2 3 3 3 3 2 2 4 2 4 4 4 3 4 3 4 5 5 6 5 3 3 3 2 2 0 2 2 2 0 2 1 3 3 1 2 3 3 3 3 3 1 4 7 6 7 7
1 3 0 2 2 3 3 2 3 3 3 3 3 2 4 3 3 3 2 4 4 5 5 6 7 7 7 8 8 8 7 4 4 2 4 3 3 3 3 3 3 3 3 4 4 4 4 3 3 2 3 4 2 5
2 1 1 2 2 1 3 1 3 2 4 3 3 3 3 2 2 2 3 3 3 3 3 3 4 5 7 8 6 7 8 7 5 6 5 4 3 4 4 4 4 5 6 6 6 6 6 3 3 4 4 4 3 3
0 1 3 3 3 3 2 3 3 3 3 3 3 4 3 2 1 2 3 2 2 1 1 4 4 4 3 4 4 5 5 5 4 4 4 3 5 6 4 5 5 5 6 6 5 6 6 6 3 4 4 5 5 5
1 2 2 2 2 3 3 3 4 3 4 3 3 4 2 1 2 2 3 1 2 2 2 3 2 3 3 4 4 4 3 4 5 5 3 4 4 4 4 3 4 4 3 5 6 6 7 6 6 5 6 6 6 6
2 3 4 3 2 4 3 3 1 2 3 4 4 3 2 2 3 2 2 2 2 2 3 3 4 4 4 3 4 2 1 2 3 4 2 3 3 3 3 4 5 2 1 4 6 8 9 8 8 8 7 7 6 7
2 3 4 2 2 2 4 4 4 4 4 3 2 3 2 2 2 2 2 1 3 3 3 4 4 5 4 4 2 1 2 2 2 1 1 1 2 1 2 2 2 3 3 5 6 8 8 8 7 7 5 4 5 7
3 3 4 1 3 3 4 3 4 2 3 3 4 3 4 3 3 2 3 2 4 6 6 5 3 3 3 3 3 2 2 2 2 2 4 3 1 1 2 2 1 1 3 4 5 4 5 6 6 4 3 4 5 5
3 2 2 5 4 4 4 4 1 1 2 2 1 2 3 4 3 3 4 3 4 4 4 4 1 1 1 2 2 1 2 3 3 2 1 1 2 3 1 1 2 2 5 6 10 8 5 4 4 5 8 7 7 8
4 4 4 4 5 5 4 6 6 7 5 5 2 3 4 4 4 3 4 3 3 4 3 3 2 1 1 1 4 4 2 1 1 2 1 1 2 2 2 1 2 3 3 2 5 8 7 11 10 10 11 9 9 9
2 4 4 5 5 5 7 7 8 6 5 6 8 8 8 4 2 2 2 2 3 3 2 2 2 3 1 3 3 3 5 3 3 3 3 4 4 4 3 4 3 3 4 6 3 8 10 11 12 13 15 16 14 12
4 6 3 4 4 4 5 3 2 2 3 3 3 3 2 2 2 1 1 2 2 3 3 2 3 2 1 1 3 4 4 6 6 5 6 6 6 6 5 5 5 5 7 9 8 7 11 13 12 13 11 12 13 14
4 4 4 4 4 4 1 3 2 2 2 2 1 0 1 1 1 1 0 1 2 2 2 3 3 2 4 6 7 6 6 5 7 9 9 9 10 7 6 6 7 8 10 10 10 11 12 14 12 12 13 13 12 11
Wind_Direction
307 310 314 319 318 316 312 304 293 299 302 300 309 323 317 184 178 160 230 185 196 247 275 258 237 216 178 196 270 353 310 180 255 219 235 198 163 172 155 142 169 162 164 180 146 210 246 154 135 202 198 163 208 197
304 314 321 325 327 324 321 336 355 333 337 339 331 318 299 211 171 168 259 187 159 225 281 316 280 274 260 251 285 257 301 323 292 302 163 282 133 154 154 175 162 187 200 170 202 202 103 180 184 198 182 181 183 190
311 320 325 327 327 326 343 14 8 358 350 353 347 328 212 159 173 178 223 224 222 260 269 253 252 261 236 230 219 247 231 240 270 314 2 352 302 123 177 191 135 183 189 147 164 184 201 203 214 209 202 204 173 176
311 323 330 337 330 349 10 4 2 349 343 346 350 340 263 189 188 191 197 196 244 291 267 268 276 256 260 235 222 223 236 244 333 292 41 343 307 199 292 90 228 105 155 156 236 155 160 218 217 207 199 173 146 155
318 319 328 337 345 9 6 356 358 2 360 354 341 315 233 157 178 238 239 218 236 264 300 290 301 274 237 223 216 216 224 237 246 261 151 290 294 252 145 217 221 191 161 194 213 185 178 196 204 191 181 178 171 162
303 310 329 340 350 15 8 359 350 348 339 337 358 30 112 157 230 250 273 178 195 197 272 292 298 269 316 176 203 213 216 194 182 186 332 177 256 301 258 223 232 192 192 175 193 325 214 55 184 181 187 175 166 155
298 306 312 330 343 350 350 341 341 334 330 343 352 328 278 251 224 223 304 13 115 176 252 251 278 272 330 107 128 151 169 160 170 160 216 286 260 227 249 254 274 221 221 207 210 137 197 195 189 181 169 150 147 141
293 285 298 293 315 329 331 337 341 335 337 338 335 314 292 279 269 265 225 207 174 257 258 281 281 295 183 134 151 156 145 170 196 241 178 214 152 211 242 237 262 255 226 223 210 188 1 284 140 158 151 151 166 171
314 306 299 278 297 315 316 323 329 326 336 318 309 299 281 211 232 242 242 178 173 268 294 290 297 327 324 136 113 167 178 164 146 211 214 180 184 213 224 218 223 199 198 194 195 203 219 216 180 169 176 175 190 185
316 323 308 285 266 288 304 322 323 329 322 310 313 262 260 170 318 166 221 175 190 206 225 261 280 275 281 310 184 166 196 160 173 204 144 219 240 231 233 236 241 190 179 161 152 172 173 200 188 183 205 199 204 187
316 325 320 301 283 282 306 325 337 340 15 56 283 295 342 309 211 221 206 219 177 237 194 214 208 261 219 249 183 242 151 150 204 141 227 214 245 237 238 225 226 214 214 212 223 187 192 179 210 222 216 205 193 184
315 316 319 310 300 285 303 328 354 5 344 330 299 282 283 255 238 260 215 176 214 254 194 216 197 216 253 262 253 103 104 201 162 126 219 252 284 327 330 303 257 254 236 229 241 236 183 190 202 217 221 215 199 180
310 308 311 305 305 270 291 317 342 312 296 248 224 237 229 183 273 247 225 214 262 182 211 304 278 228 208 231 210 211 185 103 164 202 231 279 352 342 334 324 311 265 248 219 207 217 208 228 216 221 204 199 186 174
304 301 302 302 281 240 274 309 345 349 316 283 285 290 239 213 234 232 254 292 317 221 298 309 261 243 188 209 48 181 73 175 221 227 239 33 346 344 346 354 360 12 299 220 203 209 228 237 226 220 217 183 184 180
302 300 300 289 205 221 261 314 344 352 277 269 252 239 230 262 275 281 293 277 245 313 304 253 228 275 153 195 71 98 175 214 238 303 48 356 347 340 10 25 41 43 45 48 72 141 207 214 209 220 200 182 186 171
310 303 253 238 230 225 195 341 310 236 247 249 229 264 238 265 313 302 304 292 252 296 267 215 306 220 109 319 214 221 189 216 81 81 121 184 296 46 41 45 51 64 69 60 48 35 276 224 222 227 177 186 181 181
309 239 335 308 217 157 149 217 226 217 244 249 242 237 264 276 269 284 288 288 331 357 338 321 316 11 312 224 224 208 251 80 128 154 200 234 151 80 60 58 49 68 78 58 51 39 40 81 111 133 165 128 215 212
257 354 351 128 116 121 102 232 273 240 240 246 255 277 213 246 272 262 235 234 270 242 254 336 331 238 269 229 170 131 236 287 270 138 196 191 201 200 4 55 56 55 68 72 62 55 45 63 88 168 171 168 165 197
359 352 354 182 175 228 223 203 208 267 254 271 264 263 260 256 234 258 275 243 232 266 259 246 257 242 240 227 276 263 164 153 88 54 308 268 265 285 4 37 52 57 39 28 34 50 36 28 9 9 180 135 161 191
258 277 282 258 203 261 258 181 204 252 269 313 261 260 256 262 293 249 258 232 205 206 213 221 231 225 230 298 197 117 75 128 143 89 80 87 36 243 205 186 167 55 6 350 352 345 4 3 33 68 47 330 223 206
210 227 166 139 204 235 274 283 249 256 295 273 295 282 268 247 248 243 248 166 196 220 232 232 247 253 228 239 207 202 232 235 212 344 348 311 95 265 212 176 190 209 272 282 304 312 281 346 69 27 336 294 242 233
198 163 127 213 249 222 259 236 273 301 271 277 284 241 266 257 241 215 137 195 233 234 223 252 257 264 262 250 240 220 231 238 236 232 218 223 262 242 229 222 213 240 248 251 247 258 268 281 302 301 296 320 258 231
178 170 234 185 261 251 268 185 261 235 269 279 291 261 235 243 228 150 239 222 253 232 230 253 271 267 264 271 257 244 217 220 254 273 282 267 280 272 262 250 238 252 259 253 238 237 245 246 266 293 316 308 271 228
347 224 255 179 190 265 262 235 219 257 261 253 246 263 226 237 176 239 254 240 256 303 316 312 307 305 252 233 244 244 224 209 237 251 245 258 280 280 275 281 282 263 256 272 247 239 247 255 265 275 289 291 269 237
163 258 242 241 228 248 247 250 229 233 255 238 258 267 273 215 251 238 242 321 320 342 309 313 319 301 287 297 290 269 210 212 224 239 260 235 263 275 274 283 284 280 247 245 239 243 243 245 261 273 278 274 270 250
244 207 180 226 202 212 226 259 233 301 275 259 238 268 278 285 258 277 15 331 300 272 298 315 318 312 308 254 284 261 45 186 197 230 229 222 237 258 299 312 315 321 264 264 261 251 252 255 258 258 257 261 256 249
246 235 209 223 289 293 270 245 235 241 256 257 350 326 343 267 302 286 278 258 265 285 311 294 278 278 290 314 323 302 243 178 203 301 112 160 119 201 283 290 343 352 314 289 262 250 247 249 254 254 236 225 238 210
263 298 241 202 243 233 269 277 263 307 337 358 321 15 343 301 272 272 241 272 297 301 305 299 278 282 289 295 272 259 81 127 147 153 149 154 139 145 210 186 264 286 300 342 312 266 219 213 220 221 193 147 129 149
242 225 251 257 236 242 233 240 241 190 230 289 290 228 235 230 260 271 281 290 295 289 302 326 21 3 106 107 96 76 139 166 165 155 119 126 230 142 177 268 305 4 15 51 31 31 67 97 110 104 98 102 102 106
234 196 224 240 228 226 217 173 232 223 197 211 226 264 262 252 238 238 267 291 312 318 300 297 287 359 40 59 74 79 103 191 344 342 47 113 65 88 110 52 20 36 87 89 83 92 110 95 101 95 94 93 95 97
174 184 232 236 260 245 235 237 256 263 225 223 217 237 255 294 293 215 270 305 308 343 15 18 58 49 140 131 112 123 108 73 68 72 87 103 94 82 74 75 86 91 86 85 49 86 88 87 89 92 94 94 88 87
206 216 229 248 261 276 284 226 236 240 204 216 202 209 223 223 255 260 91 294 337 22 13 5 36 40 25 72 81 76 68 100 98 109 97 96 92 93 96 98 94 93 96 96 91 83 93 89 90 91 88 93 95 94
220 224 231 260 256 268 263 298 249 301 226 266 81 103 266 294 332 22 105 248 345 349 8 54 77 78 64 69 82 83 72 79 71 73 80 80 74 77 90 89 88 90 92 95 100 102 99 103 105 108 107 109 110 114